{"data":{"norad_id":65775,"intl_designator":"2025-217P","name":"KUIPER-00156","alt_names":[],"object_type":"PAYLOAD","status":"ACTIVE","operator":null,"country":"US","launch_date":"2025-09-25","launch_site_code":"AFETR","launch_vehicle":null,"mission":null,"orbit_class":"UNKNOWN","rcs_meters":null,"size_class":null,"mass_kg":null,"dimensions":null,"purposes":[],"wikipedia_slug":null,"has_3d_model":false,"image_url":null,"decayed_at":null,"tle_current":{"epoch":"2026-09-20T11:48:26.207136Z","epoch_age_seconds":147488,"freshness":"FRESH","line1":"1 65775U 25217P   26263.49196999  .00001926  00000+0  28152-3 0  9990","line2":"2 65775  51.9037 244.2577 0000715  59.9362 300.1671 14.79940167 53964","mean_motion":14.79940167,"eccentricity":7.15e-5,"inclination_deg":51.9037,"raan_deg":244.2577,"arg_perigee_deg":59.9362,"mean_anomaly_deg":300.1671,"bstar":0.00028152,"rev_number":5396,"period_min":97.301230962535,"perigee_km":629.01195784794,"apogee_km":630.01405179863,"semimajor_km":7007.6500048233,"source":"CELESTRAK","updated_at":"2026-09-21T09:00:15.560210Z"}}}